Temperature
13 13 13 12 12 12 12 12 11 11 11 11 10 10 10 10 11 11 11 11 12 12 12 12 13 13 13 13 13 13 13 13 12 13 13 13 13 13 13 13 13 13 14
12 12 12 12 12 12 12 12 11 11 11 11 10 10 10 10 10 10 10 10 11 11 11 12 12 12 12 13 13 13 13 13 12 13 13 13 13 13 13 13 13 13 13
12 12 12 12 12 12 12 11 11 11 11 11 10 10 10 10 10 10 10 10 10 10 10 11 11 12 12 12 13 13 13 13 13 12 12 12 12 12 12 12 12 12 12
11 11 11 11 11 11 11 11 11 11 11 11 10 10 10 10 10 9 9 9 10 10 10 10 11 11 11 12 12 13 13 13 12 12 12 12 12 12 12 12 12 12 12
10 10 11 11 11 11 11 11 11 11 11 10 10 10 10 10 9 9 9 9 9 9 10 10 10 10 11 11 12 12 12 12 12 12 12 12 12 12 12 12 11 11 11
9 9 9 9 9 10 10 10 10 10 10 10 10 10 10 9 9 9 9 9 9 9 9 9 10 10 11 11 11 12 12 12 12 12 12 12 12 12 12 11 11 11 10
7 7 7 8 8 8 9 9 9 9 10 10 10 10 10 9 9 9 9 9 9 9 9 9 9 10 10 11 11 11 11 11 12 12 12 12 12 12 12 11 11 11 11
6 6 6 6 6 6 7 7 8 8 8 9 9 9 9 9 9 9 9 8 8 8 8 9 9 9 10 10 10 11 11 11 11 11 12 12 12 12 12 12 11 11 10
5 5 5 5 5 5 6 6 6 7 7 8 8 8 8 9 9 9 8 8 8 8 8 8 9 9 9 10 10 10 10 11 11 11 11 11 11 11 11 11 11 11 10
5 5 5 5 5 5 5 5 5 6 6 7 7 8 8 8 8 8 8 8 8 8 8 8 8 9 9 9 9 10 10 10 11 11 11 11 11 11 11 11 11 11 10
5 5 5 5 5 5 5 5 5 5 5 6 6 7 7 7 8 8 8 8 8 8 8 8 8 8 9 9 9 10 10 10 10 10 11 11 11 11 11 11 11 11 11
5 5 5 5 5 4 4 4 5 5 5 5 5 6 6 7 7 7 7 7 8 8 8 8 8 8 9 9 9 9 9 10 10 10 10 10 10 10 10 10 10 10 11
5 5 5 5 5 4 4 4 4 4 4 5 5 5 6 6 7 7 7 7 7 7 8 8 8 8 8 8 9 9 9 9 10 10 10 10 10 10 10 10 10 10 10
5 5 5 5 5 4 4 4 4 4 4 4 5 5 6 6 6 7 7 7 7 7 8 8 8 8 8 8 8 9 9 9 10 10 10 10 10 10 10 10 9 9 9
5 5 5 5 4 4 4 4 4 4 4 5 5 5 5 6 7 7 7 7 7 8 7 7 7 7 7 8 8 8 9 9 9 10 10 10 10 9 9 9 9 9 9
5 5 5 5 5 5 5 5 5 4 5 5 5 5 5 6 6 7 7 7 7 7 7 7 7 7 7 7 8 8 8 9 9 9 9 10 10 9 9 9 9 10 10
5 5 5 5 5 5 5 5 5 5 5 5 5 5 6 6 6 7 7 7 7 7 6 6 7 7 7 7 8 8 8 9 9 9 9 9 10 10 9 9 9 9 10
6 6 6 5 5 5 5 5 5 5 5 5 5 6 6 6 6 6 7 7 7 6 6 6 6 7 7 7 8 8 8 9 9 9 9 9 9 10 10 10 10 10 10
6 6 6 6 6 6 6 5 5 5 5 5 6 6 6 6 6 6 6 6 6 6 6 6 6 7 7 7 8 8 8 9 9 9 9 9 9 9 9 9 9 9 10
6 6 6 6 6 6 6 6 6 5 5 5 6 6 6 6 6 6 6 6 6 6 6 6 6 7 7 7 8 8 9 9 9 9 9 9 9 9 9 9 9 9 9
6 6 6 6 6 6 6 6 6 6 6 6 6 6 6 6 6 6 6 6 6 6 6 6 7 7 7 8 8 9 9 9 9 9 9 9 9 9 9 9 9 9 9
6 6 6 6 6 6 6 6 6 6 6 6 6 6 6 6 6 6 6 6 6 6 7 7 7 7 8 8 9 9 9 9 9 9 9 9 9 9 9 9 9 9 9
7 6 6 6 6 6 6 6 6 6 6 6 6 6 6 6 6 6 6 6 7 7 7 8 8 8 9 9 9 10 10 10 10 10 10 10 10 10 10 10 9 9 9
7 7 7 6 6 6 6 6 6 6 6 6 6 6 6 6 6 7 7 7 7 8 8 8 9 9 9 10 10 10 10 10 10 10 10 10 10 10 10 10 10 10 10
7 7 7 7 7 7 7 7 7 7 7 7 7 7 7 7 7 8 8 8 8 9 9 9 9 10 10 10 10 10 10 10 10 10 10 10 10 10 10 10 10 10 10
7 7 7 7 7 7 7 7 7 7 7 7 8 8 8 8 8 9 9 9 10 10 10 10 10 10 10 10 10 10 10 10 10 10 10 10 10 10 10 10 10 10 10
Wind_Speed
11 10 10 10 9 8 8 9 9 8 8 8 8 7 6 6 5 4 4 5 5 5 5 6 7 6 5 6 6 6 7 7 8 5 3 2 2 1 2 4 5 6 7
12 11 11 11 10 10 11 12 10 10 9 9 8 8 8 8 6 6 6 5 5 6 6 6 7 6 7 6 6 7 7 8 7 7 3 2 2 2 3 4 4 6 8
11 11 12 12 12 12 13 12 11 11 11 10 9 10 9 9 8 8 7 7 7 7 7 7 7 7 7 6 7 7 7 7 7 6 4 2 2 2 4 5 7 6 8
11 11 12 13 14 13 12 12 11 11 11 11 11 11 10 10 9 9 8 8 7 7 7 7 8 8 9 8 7 8 7 7 7 6 5 4 3 3 5 5 6 5 6
11 12 13 14 13 12 12 12 12 11 12 12 11 10 10 9 9 10 9 9 8 8 7 7 8 10 11 10 8 8 8 7 7 7 6 5 5 6 6 5 7 7 6
11 13 13 13 12 13 13 12 12 11 11 10 11 11 11 10 12 15 11 8 8 8 8 8 8 10 11 13 13 13 12 10 10 8 7 8 8 7 6 9 9 7 4
12 13 12 12 13 13 13 12 11 11 11 11 11 11 11 12 15 15 14 9 8 8 8 8 7 8 9 8 10 12 13 14 13 10 10 10 10 10 11 11 9 6 5
13 13 13 12 13 12 12 12 11 10 9 10 10 11 11 12 15 15 14 10 8 9 9 9 8 9 8 9 9 9 10 11 12 11 10 10 10 11 12 10 11 10 9
14 13 13 12 13 13 12 12 11 10 10 10 8 10 10 11 13 14 12 7 7 9 9 8 9 9 10 11 10 10 9 8 9 10 10 10 13 14 14 13 13 13 9
15 14 14 13 13 13 12 12 11 10 11 10 10 9 10 10 12 13 12 6 7 7 7 7 10 10 10 12 11 10 10 8 7 8 9 11 13 16 17 15 15 15 11
15 15 14 13 13 13 12 11 11 10 9 9 10 9 9 11 11 13 12 8 8 7 7 6 6 10 11 12 12 10 10 8 8 9 9 10 11 11 10 9 9 13 12
14 15 14 13 12 11 10 10 10 9 9 9 8 9 8 8 10 11 13 13 10 8 7 6 6 8 10 11 10 8 11 10 7 8 9 9 10 10 9 9 9 7 5
14 14 13 13 11 10 10 9 8 7 7 7 7 7 7 6 7 11 11 12 13 8 7 7 7 7 7 7 8 10 11 9 9 9 10 9 8 10 10 10 10 9 10
14 13 12 11 10 9 7 7 7 6 6 6 6 6 6 5 5 5 5 6 8 8 6 6 7 6 5 5 6 8 7 7 8 9 9 8 8 10 11 10 10 10 9
13 12 11 9 9 8 7 6 6 6 6 6 6 6 6 6 7 9 7 6 6 6 5 4 4 4 4 5 5 6 6 7 8 8 10 10 10 10 9 9 9 8 7
11 11 9 8 7 7 6 5 5 5 6 8 8 6 6 7 6 9 10 9 8 9 6 5 5 5 5 6 7 7 7 9 9 10 10 10 10 11 10 8 8 9 9
11 11 8 7 7 6 5 4 3 1 2 1 3 6 6 4 5 7 9 8 8 9 5 5 5 5 5 6 7 8 8 9 10 10 11 10 10 10 10 10 9 9 9
11 11 9 7 6 5 4 3 2 1 1 2 4 4 3 5 6 8 9 7 4 5 4 5 5 5 6 6 8 8 9 10 10 10 10 10 10 11 11 10 10 10 9
10 8 7 6 5 4 3 2 2 2 2 3 3 5 6 7 7 7 7 4 4 5 4 4 5 6 6 6 7 9 10 10 10 10 10 11 10 10 10 9 9 12 10
8 11 9 6 5 4 3 3 3 3 3 3 3 3 3 3 3 3 2 2 3 4 4 5 6 7 7 7 8 9 10 10 10 10 10 10 9 10 11 11 10 10 9
7 8 9 6 5 4 3 3 3 3 3 3 3 3 3 2 3 3 2 2 3 4 4 6 7 7 7 8 8 9 10 9 9 10 10 9 9 9 9 9 10 9 8
6 5 4 5 4 4 4 3 3 3 4 4 3 3 2 2 2 2 2 2 2 3 4 6 7 7 8 9 9 9 10 10 9 10 10 9 9 9 9 9 9 8 8
6 5 4 3 4 4 4 4 4 4 4 4 3 2 1 1 2 2 2 2 3 3 4 6 7 7 7 7 9 10 10 10 10 11 10 9 9 8 8 9 10 9 9
5 5 4 4 3 4 4 4 4 4 3 3 3 2 1 1 2 2 2 3 3 3 4 5 7 9 10 8 7 7 8 10 10 11 13 11 10 8 8 8 9 10 9
5 5 4 4 3 3 4 4 4 3 3 2 2 2 2 2 2 2 2 3 3 4 5 6 6 7 10 11 9 8 12 14 12 11 10 10 10 10 9 9 8 9 8
6 5 5 4 4 4 3 3 3 3 3 3 2 2 2 2 2 2 2 2 3 3 4 5 7 8 10 9 10 13 14 14 14 13 10 9 9 9 9 8 9 9 9
Wind_Direction
265 260 258 256 251 245 242 243 240 238 233 235 241 247 254 255 247 242 252 251 242 242 238 229 233 228 221 218 212 211 215 218 245 257 245 260 265 188 75 73 67 67 69
262 261 260 261 256 248 245 245 240 238 237 233 234 237 246 251 243 236 244 248 244 242 242 235 234 227 225 221 216 217 218 216 227 248 243 231 235 175 130 106 89 82 79
265 263 263 264 261 255 251 247 242 238 238 234 228 232 237 240 241 238 235 237 240 243 242 238 239 229 232 228 221 222 222 221 219 230 232 217 216 164 130 109 98 89 84
275 270 267 264 260 256 254 250 245 239 237 236 231 230 233 234 235 237 235 235 238 242 241 238 238 232 233 231 227 223 218 219 217 220 221 212 198 170 147 137 118 94 86
281 277 272 268 265 262 259 254 249 241 239 235 232 231 231 230 234 230 229 232 235 243 246 244 243 240 235 229 225 220 211 213 213 212 211 204 190 174 166 146 131 115 83
283 281 279 276 273 269 265 260 254 248 241 233 230 230 229 231 229 223 216 223 229 236 247 253 254 251 244 235 226 217 209 209 210 209 209 204 195 178 158 151 144 138 121
282 282 280 279 278 275 273 267 257 251 246 236 232 228 228 230 230 231 227 219 225 233 241 249 258 251 239 238 230 221 219 217 213 210 208 204 189 175 163 160 159 140 127
287 286 284 282 279 275 271 268 263 257 249 242 237 230 228 233 229 230 231 225 226 234 238 241 248 252 241 228 225 221 222 221 218 217 216 204 186 173 167 156 141 116 105
291 288 286 282 281 278 272 268 265 260 255 247 241 232 227 234 230 228 223 216 225 237 240 242 242 247 238 219 217 217 218 221 216 210 201 185 169 160 151 142 140 137 132
293 290 286 280 276 274 270 268 263 258 254 251 247 236 228 232 231 227 215 209 224 236 243 246 239 241 238 216 215 212 212 205 186 176 172 166 164 160 158 158 155 151 144
296 293 289 282 275 271 268 264 260 254 251 246 247 242 233 231 232 229 214 205 216 227 237 244 243 235 230 219 214 213 205 184 175 168 161 157 156 158 158 152 153 155 152
300 297 293 286 281 280 267 264 260 250 245 243 243 245 238 232 228 229 220 210 205 216 229 234 240 233 223 213 210 205 183 171 167 159 155 154 154 154 151 143 130 118 112
305 301 299 294 285 279 273 268 263 247 238 236 231 235 236 227 223 223 222 215 209 212 226 226 232 227 213 208 204 187 175 173 164 159 155 151 146 142 136 126 113 102 95
308 307 305 301 295 288 276 265 258 246 230 224 228 225 227 223 216 208 206 205 205 211 220 221 216 214 206 184 175 178 181 170 160 153 143 133 129 135 139 139 137 132 121
313 311 311 307 302 298 289 270 259 247 232 222 222 216 213 222 218 198 188 191 191 192 183 189 194 191 188 177 173 169 163 153 143 138 136 136 136 135 135 139 140 137 134
318 317 316 312 308 305 301 297 269 252 250 237 231 221 222 227 213 195 192 189 181 171 174 190 194 190 182 177 167 157 155 152 143 138 138 138 140 139 137 140 147 149 145
318 316 315 317 316 313 313 312 318 19 62 83 234 228 227 213 192 177 172 171 173 170 186 197 194 182 174 167 159 152 149 143 140 138 137 138 138 140 142 145 148 147 145
321 319 323 319 320 319 321 325 329 25 71 64 50 71 142 140 139 142 144 141 158 183 197 188 180 170 160 152 148 144 139 135 134 134 134 137 140 142 143 145 149 148 145
324 323 325 328 332 334 339 354 22 70 86 88 84 72 90 106 115 135 149 161 169 175 182 177 165 152 144 140 139 138 137 135 134 134 135 138 141 141 141 142 142 143 145
324 330 341 341 346 357 10 35 60 79 88 93 94 101 112 110 119 141 165 165 158 159 163 158 150 139 138 139 138 137 134 133 135 135 138 139 141 142 143 144 148 153 156
324 331 342 348 356 5 20 42 69 87 91 93 92 93 103 117 131 148 154 150 146 146 145 142 140 139 140 143 139 139 138 138 138 139 141 143 144 143 146 149 153 155 150
327 330 340 348 359 15 27 45 73 86 90 92 90 93 98 97 119 132 140 147 146 139 136 137 141 146 148 148 147 145 143 141 143 144 144 146 147 147 148 152 156 158 158
336 339 348 0 11 23 36 50 68 79 82 85 90 92 96 81 99 119 133 142 147 139 130 133 139 143 145 149 152 152 150 151 152 150 148 149 151 153 154 157 161 163 169
347 352 359 8 21 34 45 55 66 75 81 87 87 87 83 80 95 110 112 119 124 122 127 134 140 146 146 146 149 150 149 147 148 152 152 154 156 158 160 163 169 175 176
357 3 7 17 33 49 57 64 71 77 78 76 75 74 60 60 69 76 90 110 117 121 130 136 139 145 151 150 147 144 142 142 146 151 152 153 157 161 165 168 170 171 173
8 16 21 28 43 53 59 68 74 78 72 68 64 60 59 53 49 47 64 87 96 108 120 132 143 147 149 151 147 142 144 148 149 150 153 153 156 162 166 170 172 175 177
Height
1471 1469 1466 1464 1462 1460 1458 1457 1456 1455 1454 1453 1452 1451 1451 1450 1450 1449 1449 1450 1451 1452 1454 1455 1457 1459 1461 1463 1464 1465 1466 1467 1466 1467 1468 1469 1469 1469 1468 1468 1468 1468 1468
1465 1462 1459 1456 1454 1452 1450 1449 1448 1448 1447 1447 1446 1446 1445 1445 1444 1444 1444 1444 1445 1445 1447 1448 1450 1452 1454 1456 1457 1459 1460 1461 1462 1462 1464 1465 1466 1466 1466 1467 1467 1467 1468
1457 1454 1451 1448 1445 1443 1441 1441 1440 1439 1439 1439 1439 1439 1439 1439 1439 1438 1439 1438 1439 1439 1440 1441 1443 1445 1447 1449 1451 1452 1454 1455 1456 1457 1459 1461 1462 1463 1464 1465 1466 1467 1467
1449 1445 1442 1439 1436 1434 1432 1431 1430 1430 1430 1430 1430 1431 1431 1432 1432 1432 1433 1433 1433 1434 1434 1435 1436 1438 1440 1442 1444 1446 1448 1449 1451 1452 1454 1456 1458 1459 1461 1462 1464 1465 1467
1440 1436 1432 1429 1427 1424 1423 1422 1421 1420 1420 1421 1421 1422 1423 1424 1425 1425 1426 1426 1427 1427 1428 1429 1430 1431 1433 1435 1437 1439 1441 1443 1444 1446 1448 1451 1453 1455 1457 1459 1461 1464 1466
1431 1426 1423 1419 1416 1414 1412 1411 1410 1410 1411 1411 1412 1413 1414 1416 1417 1419 1419 1420 1420 1421 1422 1423 1424 1424 1426 1428 1430 1432 1434 1436 1438 1440 1442 1445 1447 1451 1453 1456 1458 1461 1464
1421 1417 1413 1409 1406 1403 1402 1401 1400 1400 1401 1402 1403 1404 1405 1407 1409 1411 1412 1413 1414 1414 1415 1416 1416 1417 1419 1421 1423 1425 1427 1429 1432 1435 1436 1439 1442 1445 1449 1452 1456 1459 1461
1412 1407 1403 1400 1396 1393 1391 1390 1390 1390 1391 1392 1393 1395 1396 1399 1401 1403 1405 1406 1407 1408 1409 1409 1410 1410 1412 1414 1416 1418 1420 1422 1425 1428 1430 1434 1438 1441 1445 1449 1452 1456 1461
1404 1399 1395 1391 1387 1384 1382 1380 1380 1380 1380 1382 1384 1386 1387 1390 1393 1396 1397 1398 1400 1401 1402 1403 1403 1404 1406 1408 1409 1411 1414 1416 1419 1422 1425 1429 1433 1437 1441 1445 1450 1454 1458
1395 1390 1386 1382 1378 1375 1373 1371 1370 1370 1371 1372 1374 1376 1379 1382 1385 1388 1390 1391 1393 1394 1396 1397 1397 1398 1399 1401 1403 1405 1407 1410 1414 1417 1420 1424 1428 1433 1438 1443 1447 1451 1455
1388 1383 1378 1374 1370 1367 1364 1363 1362 1361 1362 1363 1365 1368 1371 1374 1377 1380 1382 1384 1386 1388 1389 1390 1391 1392 1393 1395 1397 1400 1402 1406 1409 1413 1416 1420 1425 1430 1435 1441 1446 1450 1453
1381 1375 1371 1366 1363 1360 1357 1355 1354 1354 1354 1355 1357 1360 1363 1366 1369 1372 1375 1378 1380 1382 1383 1384 1386 1387 1388 1389 1392 1395 1399 1402 1406 1409 1413 1417 1422 1428 1433 1439 1445 1451 1455
1375 1369 1364 1360 1356 1353 1351 1349 1347 1347 1348 1349 1351 1353 1356 1359 1363 1366 1369 1372 1374 1376 1378 1379 1381 1382 1383 1385 1387 1391 1394 1398 1402 1406 1410 1415 1421 1427 1433 1439 1445 1451 1456
1370 1365 1360 1355 1351 1348 1345 1343 1342 1342 1342 1344 1346 1348 1350 1354 1357 1360 1363 1366 1369 1371 1373 1375 1376 1377 1378 1380 1383 1387 1391 1395 1399 1404 1409 1415 1421 1427 1433 1439 1445 1451 1457
1367 1362 1357 1352 1348 1344 1341 1340 1338 1338 1338 1340 1341 1344 1346 1349 1353 1356 1359 1362 1365 1367 1369 1370 1372 1373 1375 1376 1379 1383 1388 1393 1398 1403 1409 1415 1421 1427 1434 1440 1446 1451 1457
1364 1359 1354 1350 1346 1342 1339 1337 1335 1335 1335 1337 1338 1341 1343 1346 1350 1352 1356 1359 1361 1364 1365 1366 1368 1369 1371 1373 1377 1381 1386 1391 1397 1403 1409 1416 1422 1428 1434 1441 1447 1453 1457
1363 1358 1354 1349 1345 1341 1338 1336 1335 1334 1334 1336 1337 1339 1342 1345 1347 1350 1353 1356 1358 1360 1362 1364 1365 1366 1369 1371 1375 1380 1385 1391 1398 1404 1411 1417 1423 1429 1435 1441 1448 1453 1458
1362 1358 1353 1349 1345 1342 1339 1337 1336 1335 1335 1336 1338 1340 1342 1344 1347 1349 1352 1354 1356 1358 1360 1361 1363 1365 1368 1370 1375 1380 1386 1392 1399 1406 1412 1419 1425 1431 1437 1442 1448 1453 1458
1361 1357 1354 1350 1347 1343 1341 1339 1338 1337 1337 1338 1340 1341 1343 1345 1347 1349 1351 1353 1354 1356 1358 1360 1362 1365 1368 1372 1377 1383 1389 1395 1401 1408 1414 1421 1427 1432 1438 1444 1449 1454 1459
1361 1358 1355 1351 1348 1346 1343 1341 1340 1340 1340 1341 1342 1343 1345 1347 1348 1350 1351 1352 1354 1356 1358 1360 1363 1367 1371 1375 1381 1386 1393 1399 1405 1411 1417 1423 1429 1434 1439 1444 1449 1454 1459
1361 1358 1356 1353 1350 1348 1346 1345 1344 1344 1344 1344 1345 1346 1347 1348 1350 1351 1352 1353 1355 1357 1359 1362 1366 1370 1375 1380 1385 1391 1397 1403 1409 1414 1420 1425 1431 1436 1441 1446 1451 1455 1460
1362 1359 1357 1355 1353 1351 1349 1348 1348 1347 1348 1348 1349 1349 1350 1351 1352 1353 1354 1355 1357 1359 1362 1366 1370 1375 1379 1385 1390 1395 1401 1406 1412 1417 1422 1428 1433 1438 1443 1447 1452 1456 1460
1363 1360 1358 1356 1355 1354 1353 1352 1351 1351 1351 1352 1352 1353 1353 1354 1354 1355 1357 1358 1361 1363 1367 1371 1375 1379 1385 1390 1395 1400 1405 1410 1415 1420 1425 1430 1435 1440 1444 1448 1452 1456 1460
1365 1362 1360 1359 1357 1357 1356 1355 1355 1355 1355 1355 1356 1356 1357 1357 1358 1359 1360 1363 1365 1368 1372 1376 1380 1385 1389 1394 1399 1404 1409 1414 1419 1423 1428 1432 1436 1441 1445 1449 1452 1456 1459
1368 1365 1363 1361 1360 1360 1359 1359 1359 1359 1359 1359 1360 1360 1360 1361 1362 1364 1365 1368 1371 1373 1377 1381 1385 1390 1394 1398 1403 1407 1412 1417 1421 1425 1430 1434 1438 1442 1445 1449 1452 1455 1459
1371 1368 1366 1365 1364 1363 1363 1363 1363 1364 1364 1364 1365 1365 1366 1367 1368 1370 1371 1373 1376 1379 1383 1386 1390 1394 1398 1402 1406 1410 1414 1419 1423 1427 1431 1435 1438 1442 1445 1449 1452 1455 1458